DateTimeUTC,F1_A11,F1_S11,BsB_S11,BsG_S11,BsR_S11,BbsB_S11,BbsG_S11,BbsR_S11,BaB_A11,BaG_A11,BaR_A11,Tu_S11,T_S11,Uu_S11,U_S11,P_S11,T1_A11
2021-07-27T21:00:00Z,00000200,20000000,,,,,,,0000.10,0000.21,-000.29,20.1,26.5,16.8,11.4,0687.3,31.2
2021-07-27T21:01:00Z,00000200,20000000,,,,,,,-000.07,-000.25,0000.07,20.1,26.5,16.8,11.4,0687.3,31.1
2021-07-27T21:02:00Z,00000200,20000000,,,,,,,-000.26,-000.14,-000.17,20.1,26.5,16.8,11.4,0687.3,31.1
2021-07-27T21:03:00Z,00000200,60000000,,,,,,,0003.27,0002.97,0002.20,20.1,26.5,16.8,11.4,0687.3,31.1
2021-07-27T21:04:00Z,00000200,40000000,0022.92,0016.28,0010.23,0002.90,0002.20,0001.66,0003.17,0003.19,0002.68,20.2,26.4,16.7,11.5,0688.2,31.2
2021-07-27T21:05:00Z,00000200,00000000,0024.35,0017.44,0010.89,0002.57,0001.84,0001.47,0004.44,0003.67,0002.48,20.2,26.3,16.8,11.6,0688.3,31.2
2021-07-27T21:06:00Z,00000200,00000000,0023.99,0016.70,0010.03,0002.21,0002.05,0001.49,0003.34,0003.61,0002.90,20.2,26.3,16.8,11.6,0688.3,31.1
2021-07-27T21:07:00Z,00000200,00000000,0023.03,0015.84,0010.44,0002.34,0001.97,0001.56,0003.79,0002.87,0002.73,20.3,26.3,16.8,11.7,0688.3,31.1
2021-07-27T21:08:00Z,00000200,00000000,0025.07,0017.65,0010.77,0002.74,0002.13,0001.67,0003.82,0003.49,0002.42,20.3,26.3,16.8,11.7,0688.3,31.1
2021-07-27T21:09:00Z,00000200,00000000,0024.83,0018.37,0011.18,0002.85,0002.28,0001.25,0003.78,0003.98,0003.15,20.2,26.3,16.8,11.7,0688.3,31.2
2021-07-27T21:10:00Z,00000200,00000000,0024.31,0017.34,0011.04,0002.60,0002.06,0001.38,0003.43,0003.04,0002.67,20.3,26.3,16.8,11.7,0688.3,31.2
2021-07-27T21:11:00Z,00000200,00000000,0025.02,0018.45,0011.65,0002.52,0001.93,0001.93,0004.33,0003.87,0002.97,20.2,26.3,16.9,11.8,0688.3,31.1
2021-07-27T21:12:00Z,00000200,00000000,0024.57,0018.04,0011.17,0002.32,0002.06,0001.48,0004.33,0003.66,0002.89,20.2,26.3,17.0,11.8,0688.3,31.2
2021-07-27T21:13:00Z,00000200,00000000,0024.37,0016.98,0010.95,0002.33,0001.79,0001.34,0003.48,0003.50,0002.50,20.2,26.3,16.9,11.7,0688.3,31.1
2021-07-27T21:14:00Z,00000200,00000000,0025.16,0018.72,0011.88,0002.87,0001.83,0001.83,0004.30,0004.04,0003.38,20.2,26.3,16.9,11.8,0688.3,31.2
2021-07-27T21:15:00Z,00000200,00000000,0024.57,0018.34,0011.35,0003.23,0002.08,0001.34,0004.19,0003.63,0002.70,20.2,26.3,16.9,11.8,0688.3,31.1
2021-07-27T21:16:00Z,00000200,00000000,0024.03,0017.10,0010.94,0002.34,0001.64,0001.57,0003.52,0003.07,0002.77,20.2,26.3,17.0,11.8,0688.3,31.1
2021-07-27T21:17:00Z,00000200,00000000,0024.81,0016.86,0010.35,0002.51,0001.54,0001.31,0003.57,0004.02,0002.68,20.2,26.3,17.0,11.9,0688.4,31.2
2021-07-27T21:18:00Z,00000200,00000000,0026.92,0018.93,0012.28,0003.47,0002.62,0001.71,0004.44,0003.66,0003.18,20.3,26.2,17.0,11.8,0688.4,31.1
2021-07-27T21:19:00Z,00000200,00000000,0025.08,0019.03,0012.38,0003.03,0002.21,0001.43,0004.04,0003.72,0003.14,20.3,26.2,17.0,11.9,0688.4,31.1
2021-07-27T21:20:00Z,00000200,00000000,0027.66,0021.03,0013.04,0002.82,0002.45,0001.88,0004.45,0004.31,0003.00,20.3,26.3,17.2,11.9,0688.4,31.1
2021-07-27T21:21:00Z,00000200,00000000,0027.89,0021.45,0013.73,0003.05,0002.45,0001.66,0004.27,0003.74,0003.23,20.3,26.2,17.2,12.0,0688.4,31.1
2021-07-27T21:22:00Z,00000200,00000000,0029.39,0022.33,0014.53,0002.82,0002.38,0001.56,0004.62,0004.18,0003.40,20.3,26.2,17.1,11.9,0688.4,31.2
2021-07-27T21:23:00Z,00000200,00000000,0029.38,0022.34,0014.94,0003.30,0002.50,0001.79,0004.78,0004.85,0003.49,20.3,26.2,17.2,12.0,0688.4,31.2
2021-07-27T21:24:00Z,00000200,00000000,0030.48,0023.60,0015.41,0002.52,0002.80,0002.20,0004.88,0004.19,0003.66,20.3,26.2,17.2,12.0,0688.4,31.1
2021-07-27T21:25:00Z,00000200,00000000,0029.23,0023.59,0015.27,0003.54,0002.69,0001.67,0004.67,0004.22,0003.16,20.3,26.2,17.2,12.0,0688.4,31.2
2021-07-27T21:26:00Z,00000200,00000000,0029.01,0022.64,0015.59,0003.52,0002.55,0001.79,0004.34,0003.89,0003.39,20.3,26.2,17.1,12.0,0688.4,31.1
2021-07-27T21:27:00Z,00000200,00000000,0024.58,0018.98,0012.78,0002.75,0002.23,0001.53,0003.76,0003.96,0003.17,20.3,26.2,17.1,11.9,0688.4,31.1
2021-07-27T21:28:00Z,00000200,00000000,0022.98,0017.93,0012.32,0002.76,0001.92,0001.57,0003.44,0002.78,0002.17,20.3,26.2,17.1,11.9,0688.4,31.1
2021-07-27T21:29:00Z,00000200,00000000,0018.98,0015.34,0010.49,0002.29,0001.64,0001.29,0002.68,0002.77,0002.17,20.3,26.2,16.9,11.7,0688.4,31.1
2021-07-27T21:30:00Z,00000200,00000000,0016.66,0013.66,0009.02,0002.05,0001.30,0001.00,0002.13,0001.74,0001.79,20.3,26.2,16.6,11.6,0688.3,31.1
2021-07-27T21:31:00Z,00000200,00000000,0016.11,0012.38,0008.62,0001.69,0001.22,0001.17,0002.24,0002.32,0001.69,20.3,26.2,16.6,11.6,0688.4,31.2
2021-07-27T21:32:00Z,00000200,00000000,0016.50,0012.59,0008.99,0001.47,0001.69,0001.15,0002.65,0002.24,0001.77,20.3,26.2,16.5,11.5,0688.4,31.1
2021-07-27T21:33:00Z,00000200,00000000,0015.52,0012.65,0008.61,0002.61,0001.40,0001.03,0002.52,0002.22,0001.72,20.3,26.2,16.5,11.5,0688.4,31.2
2021-07-27T21:34:00Z,00000200,00000000,0015.36,0011.62,0008.09,0002.24,0001.59,0001.27,0001.86,0002.06,0002.04,20.3,26.2,16.5,11.5,0688.4,31.1
2021-07-27T21:35:00Z,00000200,00000000,0014.82,0011.78,0007.54,0001.36,0001.63,0000.89,0002.40,0002.04,0001.51,20.3,26.2,16.5,11.5,0688.4,31.2
2021-07-27T21:36:00Z,00000200,00000000,0013.80,0010.54,0007.66,0001.27,0001.29,0001.02,0002.26,0002.00,0001.86,20.3,26.2,16.4,11.4,0688.4,31.1
2021-07-27T21:37:00Z,00000200,00000000,0013.59,0010.91,0007.39,0001.67,0001.11,0000.93,0002.24,0002.17,0001.27,20.3,26.2,16.5,11.5,0688.4,31.1
2021-07-27T21:38:00Z,00000200,00000000,0012.33,0010.00,0006.73,0001.81,0001.30,0001.08,0001.84,0001.28,0001.30,20.3,26.2,16.3,11.4,0688.4,31.1
2021-07-27T21:39:00Z,00000200,00000000,0013.43,0009.66,0006.91,0001.47,0001.05,0001.11,0001.77,0002.21,0001.54,20.3,26.2,16.4,11.4,0688.4,31.1
2021-07-27T21:40:00Z,00000200,00000000,0011.91,0009.87,0006.33,0001.44,0000.94,0000.48,0002.30,0002.17,0001.45,20.2,26.2,16.4,11.5,0688.4,31.2
2021-07-27T21:41:00Z,00000200,00000000,0011.86,0009.65,0006.36,0000.95,0001.26,0001.06,0001.54,0001.18,0001.46,20.2,26.2,16.5,11.5,0688.4,31.2
2021-07-27T21:42:00Z,00000200,00000000,0012.00,0008.89,0005.97,0001.70,0000.56,0000.86,0001.42,0001.88,0001.36,20.3,26.2,16.5,11.6,0688.4,31.1
2021-07-27T21:43:00Z,00000200,00000000,0009.86,0007.73,0005.13,0001.06,0000.83,0000.66,0001.36,0000.91,0000.67,20.3,26.2,16.4,11.5,0688.4,31.1
2021-07-27T21:44:00Z,00000200,00000000,0009.95,0007.75,0004.89,0000.61,0001.14,0000.47,0001.59,0001.36,0001.02,20.3,26.2,16.3,11.4,0688.4,31.1
2021-07-27T21:45:00Z,00000200,00000000,0010.79,0007.80,0005.09,0001.24,0000.78,0000.85,0001.00,0000.93,0001.21,20.2,26.2,16.4,11.4,0688.4,31.1
2021-07-27T21:46:00Z,00000200,00000000,0010.45,0008.17,0005.40,0001.40,0001.20,0000.69,0001.50,0001.51,0000.85,20.2,26.2,16.2,11.4,0688.4,31.2
2021-07-27T21:47:00Z,00000200,00000000,0010.25,0007.96,0005.47,0001.85,0000.64,0000.88,0001.75,0001.56,0001.17,20.2,26.2,16.3,11.4,0688.4,31.2
2021-07-27T21:48:00Z,00000200,00000000,0011.26,0007.78,0005.45,0000.94,0001.05,0000.68,0001.53,0001.27,0001.29,20.2,26.2,16.3,11.4,0688.5,31.1
2021-07-27T21:49:00Z,00000200,00000000,0010.73,0008.27,0005.76,0001.23,0000.86,0000.56,0001.71,0001.32,0001.11,20.2,26.2,16.3,11.4,0688.5,31.1
2021-07-27T21:50:00Z,00000200,00000000,0011.26,0008.29,0005.84,0000.92,0000.90,0000.56,0001.01,0001.47,0001.44,20.2,26.2,16.4,11.4,0688.5,31.2
2021-07-27T21:51:00Z,00000200,00000000,0011.06,0008.65,0005.70,0001.74,0000.88,0000.67,0002.29,0001.47,0000.93,20.2,26.2,16.4,11.5,0688.5,31.1
2021-07-27T21:52:00Z,00000200,00000000,0012.16,0009.09,0005.76,0001.23,0000.95,0000.60,0001.19,0001.30,0001.18,20.2,26.2,16.4,11.5,0688.5,31.1
2021-07-27T21:53:00Z,00000200,00000000,0011.78,0009.17,0005.93,0001.26,0001.18,0000.93,0001.85,0002.07,0001.51,20.2,26.2,16.5,11.5,0688.4,31.1
2021-07-27T21:54:00Z,00000200,00000000,0010.71,0008.86,0006.19,0001.10,0001.12,0000.88,0001.44,0001.43,0001.16,20.2,26.2,16.5,11.5,0688.4,31.1
2021-07-27T21:55:00Z,00000200,00000000,0010.98,0009.07,0005.52,0001.65,0000.91,0000.67,0002.06,0001.64,0001.09,20.2,26.1,16.4,11.5,0688.4,31.1
2021-07-27T21:56:00Z,00000200,00000000,0012.20,0009.17,0006.38,0001.53,0000.93,0000.81,0001.59,0001.49,0001.69,20.2,26.2,16.4,11.4,0688.5,31.1
2021-07-27T21:57:00Z,00000200,40000000,,,,,,,0000.13,0000.23,0000.16,20.2,26.2,16.7,11.6,0688.5,31.1
2021-07-27T21:58:00Z,00000200,60000000,,,,,,,-000.37,-000.44,-000.35,20.0,26.3,16.6,11.3,0687.5,31.2
2021-07-27T21:59:00Z,00000200,20000000,,,,,,,0000.15,-000.03,-000.32,20.0,26.4,16.4,11.2,0687.5,31.2
